Weather History for Grayling, MI

Change the Weather History Date:

Tuesday, September 4, 2012

  Actual Average (KHTL) Record (KHTL)
Temperature  
Mean Temperature 76 °F 61 °F  
Max Temperature 88 °F 73 °F 94 °F (1929)
Min Temperature 63 °F 49 °F 28 °F (1930)
Degree Days  
Heating Degree Days 0 5  
Month to date heating degree days 19  
Since 1 July heating degree days 146  
Cooling Degree Days 10 1  
Month to date cooling degree days 4  
Year to date cooling degree days 269  
Growing Degree Days 26 (Base 50)    
Moisture  
Dew Point 66 °F    
Average Humidity 77    
Maximum Humidity 100    
Minimum Humidity 41    
Precipitation  
Precipitation 0.00 in 0.10 in 0.97 in (2008)
Month to date precipitation 0.41  
Year to date precipitation 19.53  
Sea Level Pressure  
Sea Level Pressure 29.91 in    
Wind  
Wind Speed 2 mph (NNW)    
Max Wind Speed 9 mph    
Max Gust Speed 16 mph    
Visibility 9 miles    
Events Rain    
T = Trace of Precipitation, MM = Missing Value Source: NWS Daily Summary

Daily Weather History Graph

Daily Weather History Graph

Search for Another Location

Airport:

Trip Planner

Search our weather history database for the weather conditions in past years. The results will help you decide how hot, cold, wet, or windy it might be!

Date:

Astronomy

Sep. 04, 2012 Rise Set
Actual Time 7:05 AM EDT 8:09 PM EDT
Civil Twilight 6:35 AM EDT 8:39 PM EDT
Nautical Twilight 5:59 AM EDT 9:14 PM EDT
Astronomical Twilight 5:22 AM EDT 9:52 PM EDT
Moon 9:47 PM EDT (9/4) 11:24 AM EDT (9/4)
Length of Visible Light 14h 03m
Length of Day
13h 03m
Waning Gibbous, 84% of the Moon is Illuminated
Sep 4
Waning Gibbous
Sep 8
Last Quarter
Sep 15
New
Sep 22
First Quarter
Sep 29
Full

Hourly Weather History & Observations

Time (EDT) Temp. Heat Index Dew Point Humidity Pressure Visibility Wind Dir Wind Speed Gust Speed Precip Events Conditions
12:11 AM 74.3 °F - 63.9 °F 70% 29.96 in 10.0 mi NW 5.8 mph - N/A   Scattered Clouds
12:31 AM 72.5 °F - 62.8 °F 71% 29.95 in 10.0 mi Calm Calm - N/A   Mostly Cloudy
12:52 AM 71.8 °F - 62.2 °F 72% 29.96 in 10.0 mi Calm Calm - N/A   Overcast
1:12 AM 70.0 °F - 61.9 °F 75% 29.96 in 10.0 mi Calm Calm - N/A   Overcast
1:32 AM 73.8 °F - 63.1 °F 69% 29.96 in 10.0 mi North 4.6 mph 16.1 mph N/A   Overcast
1:52 AM 72.3 °F - 62.2 °F 70% 29.96 in 10.0 mi Calm Calm - N/A   Overcast
2:12 AM 70.5 °F - 62.8 °F 76% 29.96 in 10.0 mi Calm Calm - N/A Rain Light Rain
2:32 AM 70.0 °F - 69.1 °F 97% 29.95 in 10.0 mi SE 4.6 mph - N/A Rain Light Rain
2:52 AM 70.0 °F - 69.8 °F 99% 29.92 in 10.0 mi SE 5.8 mph - N/A Rain Light Rain
3:12 AM 70.0 °F - 69.3 °F 98% 29.92 in 10.0 mi Calm Calm - N/A Rain Light Rain
3:33 AM 68.0 °F - 67.8 °F 99% 29.94 in 10.0 mi WNW 4.6 mph - N/A   Light Drizzle
3:50 AM 67.5 °F - 67.3 °F 99% 29.95 in 10.0 mi NW 5.8 mph - N/A Rain Light Rain
4:10 AM 67.5 °F - 67.5 °F 100% 29.94 in 7.0 mi Calm Calm - N/A Rain Rain
4:30 AM 67.5 °F - 67.5 °F 100% 29.93 in 7.0 mi Calm Calm - N/A Rain Light Rain
4:52 AM 67.5 °F - 67.5 °F 100% 29.94 in 5.0 mi Calm Calm - N/A Rain Light Rain
5:12 AM 67.5 °F - 67.5 °F 100% 29.94 in 7.0 mi Calm Calm - N/A   Drizzle
5:53 AM 67.5 °F - 67.5 °F 100% 29.94 in 7.0 mi Calm Calm - N/A   Mostly Cloudy
6:13 AM 67.5 °F - 67.5 °F 100% 29.93 in 7.0 mi Calm Calm - N/A   Mostly Cloudy
6:33 AM 67.5 °F - 67.5 °F 100% 29.94 in 7.0 mi Calm Calm - N/A   Mostly Cloudy
6:53 AM 67.5 °F - 67.5 °F 100% 29.94 in 7.0 mi Calm Calm - N/A   Mostly Cloudy
7:13 AM 67.5 °F - 67.5 °F 100% 29.94 in 7.0 mi Calm Calm - N/A   Mostly Cloudy
7:33 AM 67.5 °F - 67.5 °F 100% 29.95 in 5.0 mi Calm Calm - N/A   Mostly Cloudy
7:53 AM 67.5 °F - 67.5 °F 100% 29.94 in 4.0 mi Calm Calm - N/A   Mostly Cloudy
8:13 AM 67.5 °F - 67.5 °F 100% 29.95 in 4.0 mi WSW 3.5 mph - N/A Rain Light Rain
8:33 AM 67.5 °F - 67.5 °F 100% 29.94 in 3.0 mi Calm Calm - N/A Rain Light Rain
8:53 AM 67.5 °F - 67.5 °F 100% 29.94 in 5.0 mi Calm Calm - N/A   Scattered Clouds
9:13 AM 69.8 °F - 69.8 °F 100% 29.95 in 5.0 mi Calm Calm - N/A   Scattered Clouds
9:34 AM 70.0 °F - 70.0 °F 100% 29.95 in 7.0 mi Calm Calm - N/A   Scattered Clouds
9:54 AM 70.0 °F - 69.6 °F 99% 29.95 in 10.0 mi Calm Calm - N/A   Scattered Clouds
10:14 AM 70.9 °F - 68.7 °F 93% 29.95 in 10.0 mi Calm Calm - N/A   Mostly Cloudy
10:34 AM 75.2 °F - 70.3 °F 85% 29.95 in 10.0 mi ESE 3.5 mph - N/A   Scattered Clouds
10:54 AM 75.2 °F - 68.7 °F 80% 29.95 in 10.0 mi East 4.6 mph - N/A   Scattered Clouds
11:14 AM 75.2 °F - 68.2 °F 79% 29.95 in 10.0 mi East 5.8 mph - N/A   Scattered Clouds
11:34 AM 77.5 °F - 69.8 °F 77% 29.95 in 10.0 mi ESE 3.5 mph - N/A   Scattered Clouds
11:54 AM 77.5 °F - 68.9 °F 75% 29.94 in 10.0 mi Calm Calm - N/A   Scattered Clouds
12:14 PM 79.3 °F - 68.0 °F 68% 29.94 in 10.0 mi Calm Calm - N/A   Clear
12:35 PM 80.1 °F 82.2 °F 66.4 °F 63% 29.93 in 10.0 mi Calm Calm - N/A   Scattered Clouds
12:55 PM 80.1 °F 82.1 °F 66.0 °F 62% 29.92 in 10.0 mi North 3.5 mph - N/A   Overcast
1:15 PM 80.2 °F 82.1 °F 65.1 °F 60% 29.92 in 10.0 mi Calm Calm - N/A   Overcast
1:30 PM 80.1 °F 82.0 °F 65.7 °F 61% 29.91 in 10.0 mi Calm Calm - N/A   Scattered Clouds
1:50 PM 81.1 °F 82.9 °F 65.1 °F 58% 29.91 in 10.0 mi Calm Calm - N/A   Scattered Clouds
2:10 PM 80.8 °F 82.4 °F 64.2 °F 57% 29.91 in 10.0 mi Calm Calm - N/A   Clear
2:30 PM 83.1 °F 84.6 °F 64.2 °F 53% 29.90 in 10.0 mi SE 3.5 mph - N/A   Mostly Cloudy
2:50 PM 81.5 °F 82.9 °F 63.9 °F 55% 29.90 in 10.0 mi Calm Calm - N/A   Mostly Cloudy
3:10 PM 82.2 °F 83.7 °F 64.2 °F 54% 29.89 in 10.0 mi Calm Calm - N/A   Mostly Cloudy
3:31 PM 87.8 °F 89.4 °F 64.4 °F 46% 29.88 in 10.0 mi WNW 4.6 mph - N/A   Mostly Cloudy
3:51 PM 86.4 °F 87.0 °F 63.0 °F 45% 29.88 in 10.0 mi WNW 4.6 mph - N/A   Scattered Clouds
4:11 PM 88.7 °F 90.1 °F 64.2 °F 44% 29.88 in 10.0 mi West 5.8 mph - N/A   Mostly Cloudy
4:31 PM 87.6 °F 89.1 °F 64.4 °F 46% 29.88 in 10.0 mi West 4.6 mph - N/A   Scattered Clouds
4:51 PM 88.2 °F 88.7 °F 62.4 °F 42% 29.88 in 10.0 mi Calm Calm - N/A   Scattered Clouds
5:11 PM 84.4 °F 84.8 °F 61.5 °F 46% 29.87 in 10.0 mi Calm Calm - N/A   Scattered Clouds
5:31 PM 85.3 °F 85.9 °F 62.1 °F 46% 29.87 in 10.0 mi Calm Calm - N/A   Mostly Cloudy
5:51 PM 87.3 °F 88.0 °F 63.0 °F 44% 29.87 in 10.0 mi East 3.5 mph - N/A   Overcast
6:11 PM 86.9 °F 87.5 °F 62.4 °F 44% 29.87 in 10.0 mi NW 6.9 mph - N/A   Mostly Cloudy
6:31 PM 87.8 °F 87.9 °F 61.2 °F 41% 29.87 in 10.0 mi WNW 5.8 mph - N/A   Mostly Cloudy
6:52 PM 85.3 °F 85.7 °F 61.5 °F 45% 29.87 in 10.0 mi NNW 9.2 mph - N/A   Mostly Cloudy
7:12 PM 83.8 °F 84.3 °F 61.9 °F 47% 29.87 in 10.0 mi NNW 6.9 mph - N/A   Mostly Cloudy
7:32 PM 82.2 °F 83.7 °F 63.9 °F 54% 29.87 in 10.0 mi NNW 8.1 mph - N/A   Scattered Clouds
7:52 PM 80.1 °F 81.5 °F 63.3 °F 56% 29.87 in 10.0 mi NNW 4.6 mph - N/A   Clear
8:12 PM 77.5 °F - 64.0 °F 63% 29.87 in 10.0 mi Calm Calm - N/A   Clear
8:32 PM 76.5 °F - 64.9 °F 67% 29.87 in 10.0 mi Calm Calm - N/A   Clear
8:52 PM 75.2 °F - 68.0 °F 78% 29.87 in 10.0 mi Calm Calm - N/A   Scattered Clouds
9:12 PM 72.3 °F - 67.6 °F 85% 29.88 in 10.0 mi Calm Calm - N/A   Scattered Clouds
9:32 PM 70.0 °F - 66.6 °F 89% 29.88 in 10.0 mi Calm Calm - N/A   Clear
9:52 PM 70.0 °F - 66.2 °F 88% 29.89 in 10.0 mi Calm Calm - N/A   Clear
10:13 PM 70.0 °F - 67.6 °F 92% 29.88 in 10.0 mi Calm Calm - N/A   Clear
10:33 PM 70.0 °F - 68.4 °F 95% 29.87 in 10.0 mi Calm Calm - N/A   Clear
10:53 PM 66.0 °F - 65.7 °F 99% 29.87 in 10.0 mi Calm Calm - N/A   Clear
11:13 PM 64.4 °F - 64.0 °F 99% 29.87 in 10.0 mi Calm Calm - N/A   Clear
11:33 PM 63.1 °F - 63.0 °F 99% 29.88 in 10.0 mi Calm Calm - N/A   Clear
11:53 PM 64.9 °F - 64.9 °F 100% 29.88 in 10.0 mi Calm Calm - N/A   Clear